[[{"header":{"parameterUnit":"m.s-1","parameterCategory":1,"la1":30.2992,"la2":30.254,"lo1":-89.0895,"lo2":-89.0443,"dy":0.0025,"dx":0.0025,"nx":19,"ny":19,"refTime":"2026-05-06T03:00:00:Z","depth":0,"parameterNumber":2,"parameterNumberName":"U-component_of_WINDS"},"data":[0,0,0,-0.9151,-0.9154,-0.9294,-0.9294,-0.9469,-0.947,0,0,0,0,0,0,0,0,0,0,0,-0.9103,-0.9104,-0.9151,-0.9154,-0.9294,-0.9294,-0.9469,-0.947,0,0,0,0,0,0,0,0,0,0,0,-0.9102,-0.9104,-0.9105,-0.9154,-0.9293,-0.9294,-0.9468,-0.9365,0,0,0,0,0,0,0,0,0,0,-0.923,-0.9179,-0.9103,-0.9105,-0.9155,-0.9293,-0.9294,-0.936,-0.9372,-0.9402,0,-0.9425,0,-0.945,-0.9481,-0.9482,0,0,0,-0.916,-0.9169,-0.9213,-0.9105,-0.9156,-0.9293,-0.9232,-0.9367,-0.9379,-0.9417,-0.9427,-0.9434,-0.9453,-0.9482,-0.9483,-0.9634,-0.9634,0,0,-0.9152,-0.9125,-0.9204,-0.922,-0.9194,-0.9228,-0.9236,-0.9375,-0.9385,-0.9428,-0.9438,-0.9456,-0.9484,-0.9485,-0.9634,-0.9634,0,0,0,-0.9126,-0.912,-0.916,-0.9213,-0.9238,-0.9232,-0.9242,-0.9379,-0.9394,-0.944,-0.9458,-0.9484,-0.9486,-0.9633,-0.9634,-0.9629,0,0,0,-0.9122,-0.9105,-0.9156,-0.9141,-0.9235,-0.931,-0.9243,-0.9384,-0.9401,-0.9457,-0.9485,-0.9488,-0.9633,-0.9634,-0.9628,-0.9631,0,0,0,-0.9096,-0.9102,-0.9119,-0.914,-0.9198,-0.9308,-0.9331,-0.9389,-0.9411,-0.9482,-0.9489,-0.9632,-0.9633,-0.9627,-0.963,-0.9664,0,0,0,-0.9062,-0.9114,-0.9119,-0.9184,-0.9197,-0.9302,-0.9331,-0.9411,-0.9471,-0.9485,-0.9633,-0.9634,-0.9627,-0.9629,-0.9663,-0.9688,-0.9695,0,0,-0.9113,-0.9119,-0.9159,-0.9168,-0.9265,-0.9283,-0.9382,-0.9463,-0.9496,-0.9587,-0.9591,-0.9628,-0.963,-0.9664,-0.9745,-0.975,0,0,0,-0.9166,-0.9195,-0.9227,-0.9281,-0.9342,-0.9397,-0.9465,-0.9496,-0.9575,-0.9536,-0.965,-0.9652,-0.9673,-0.9686,-0.9691,-0.9711,-0.9638,-0.9638,-0.9638,-0.92,-0.9237,-0.9307,-0.9361,-0.9414,-0.9484,-0.9532,-0.9586,-0.9609,-0.9636,-0.9663,-0.9707,-0.9722,-0.9725,-0.9746,-0.9679,-0.9679,-0.9679,-0.9679,-0.9278,-0.9325,-0.9354,-0.9432,-0.9472,-0.954,-0.9611,-0.9625,-0.9697,-0.9689,-0.971,-0.9699,-0.973,-0.9751,-0.9679,-0.9679,-0.9679,-0.9679,-0.9679,-0.9305,-0.9334,-0.9369,-0.9452,-0.9513,-0.9568,-0.9634,-0.9669,-0.9703,-0.9722,-0.9757,-0.9757,-0.9763,-0.9736,-0.9736,-0.9736,-0.9736,-0.9737,-0.9737,-0.932,-0.9359,-0.9409,-0.9479,-0.9519,-0.9577,-0.9649,-0.9691,-0.9747,-0.9768,-0.9768,-0.979,-0.9725,-0.9709,-0.9739,-0.9739,-0.9738,-0.9738,-0.9738,-0.9387,-0.9378,-0.9454,-0.9494,-0.9581,-0.964,-0.9683,-0.9766,-0.9806,-0.9838,-0.9856,-0.9802,-0.9812,-0.9808,-0.9795,-0.9846,-0.9846,-0.9846,-0.9846,-0.9411,-0.9418,-0.9505,-0.9567,-0.9633,-0.9679,-0.9769,-0.9827,-0.9886,-0.9914,-0.9912,-0.9897,-0.9892,-0.9905,-0.9899,-0.9888,-0.9961,-0.9961,-0.9961,-0.9455,-0.9471,-0.9538,-0.9592,-0.9663,-0.9724,-0.981,-0.9884,-0.9949,-0.9967,-0.9937,-0.9932,-0.9909,-0.9899,-0.9916,-0.9907,-0.9886,0,0]},{"header":{"parameterUnit":"m.s-1","parameterCategory":1,"la1":30.2992,"la2":30.254,"lo1":-89.0895,"lo2":-89.0443,"dy":0.0025,"dx":0.0025,"nx":19,"ny":19,"refTime":"2026-05-06T03:00:00:Z","depth":0,"parameterNumber":3,"parameterNumberName":"V-component_of_WINDS"},"data":[0,0,0,5.7837,5.7836,5.7794,5.7794,5.7769,5.7769,0,0,0,0,0,0,0,0,0,0,0,5.7869,5.7869,5.7837,5.7836,5.7794,5.7794,5.7769,5.7769,0,0,0,0,0,0,0,0,0,0,0,5.7868,5.7869,5.787,5.7836,5.7794,5.7794,5.7769,5.779,0,0,0,0,0,0,0,0,0,0,5.7826,5.7875,5.7869,5.787,5.7836,5.7794,5.7794,5.7791,5.7789,5.7802,0,5.7819,0,5.7794,5.777,5.777,0,0,0,5.7822,5.7877,5.7848,5.787,5.7836,5.7795,5.7809,5.7789,5.7788,5.7799,5.7819,5.7817,5.7794,5.777,5.777,5.7893,5.7894,0,0,5.7824,5.7871,5.7849,5.7847,5.7857,5.7811,5.7808,5.7788,5.7811,5.7818,5.7816,5.7793,5.777,5.777,5.7892,5.7893,0,0,0,5.7841,5.7874,5.7844,5.7849,5.784,5.781,5.7807,5.7812,5.7799,5.7815,5.7793,5.777,5.777,5.789,5.7892,5.8,0,0,0,5.7841,5.7883,5.7846,5.7875,5.7841,5.7826,5.7832,5.78,5.7796,5.7793,5.777,5.777,5.7889,5.7891,5.7994,5.8043,0,0,0,5.7865,5.7886,5.7886,5.7878,5.7861,5.7825,5.781,5.7798,5.7784,5.777,5.777,5.7888,5.7891,5.7989,5.8034,5.8088,0,0,0,5.7903,5.7984,5.7889,5.797,5.7862,5.7893,5.7809,5.783,5.7831,5.777,5.7889,5.7892,5.7987,5.8028,5.8083,5.8141,5.817,0,0,5.8031,5.8001,5.8045,5.7958,5.8018,5.7895,5.797,5.7926,5.7881,5.7891,5.7893,5.7996,5.8033,5.8087,5.832,5.8344,0,0,0,5.8101,5.8133,5.8139,5.8142,5.8111,5.8086,5.8026,5.8009,5.8015,5.7896,5.8029,5.805,5.8079,5.8105,5.8125,5.8146,5.7906,5.7906,5.7906,5.835,5.8288,5.8355,5.8288,5.8292,5.8228,5.8225,5.8191,5.8128,5.816,5.8162,5.8312,5.8344,5.8358,5.8381,5.8189,5.819,5.819,5.819,5.8531,5.8565,5.8478,5.8512,5.8445,5.8473,5.8413,5.8367,5.8381,5.8305,5.8328,5.8249,5.8386,5.8403,5.8198,5.8196,5.8195,5.8195,5.8194,5.8686,5.8691,5.867,5.8667,5.8671,5.8599,5.8617,5.8555,5.8497,5.852,5.8514,5.8512,5.8501,5.8522,5.8522,5.8523,5.8523,5.8524,5.8524,5.8855,5.8827,5.885,5.8822,5.8815,5.8798,5.8733,5.8723,5.8697,5.865,5.865,5.8582,5.8412,5.837,5.8532,5.853,5.8529,5.8529,5.8528,5.9059,5.9002,5.9038,5.9031,5.8992,5.8999,5.892,5.8906,5.8889,5.89,5.8826,5.8711,5.8675,5.8659,5.8623,5.8841,5.8841,5.8841,5.8841,5.9189,5.9165,5.9186,5.9179,5.9164,5.9096,5.9136,5.9085,5.9024,5.9009,5.8968,5.8916,5.8902,5.8874,5.8853,5.8819,5.9082,5.9082,5.9082,5.9309,5.9281,5.9328,5.9268,5.9232,5.9203,5.9237,5.923,5.9148,5.909,5.8995,5.8985,5.89,5.8876,5.8816,5.8785,5.8721,0,0]}]]